Cheboygan, MI

4:02 AM EST on January 23, 2018 (GMT -0500)
Cheboygan

Weather History for KSLH - December, 2012

Change the Weather History Date:

Sunday, December 23, 2012

  Actual Average (KMCD) Record (KMCD)
Temperature  
Mean Temperature 24 °F -  
Max Temperature 28 °F 27 °F 54 °F (2015)
Min Temperature 20 °F 17 °F 1 °F (1989)
Degree Days  
Heating Degree Days 41    
Moisture  
Dew Point 20 °F    
Average Humidity 81    
Maximum Humidity 98    
Minimum Humidity 70    
Precipitation  
Precipitation 0.00 in - - ()
Sea Level Pressure  
Sea Level Pressure 29.90 in    
Wind  
Wind Speed 9 mph (WNW)    
Max Wind Speed 20 mph    
Max Gust Speed 29 mph    
Visibility 10 miles    
Events Snow    
Averages and records for this station are not official NWS values.
T = Trace of Precipitation, MM = Missing Value Source: NWS Daily Summary

Daily Weather History Graph

Daily Weather History Graph

Search for Another Location

Airport or City:

Trip Planner

Search our weather history database for the weather conditions in past years. The results will help you decide how hot, cold, wet, or windy it might be!

Date:

Astronomy

Dec. 23, 2012 Rise Set
Actual Time 8:16 AM EST 4:58 PM EST
Civil Twilight 7:42 AM EST 5:32 PM EST
Nautical Twilight 7:04 AM EST 6:10 PM EST
Astronomical Twilight 6:28 AM EST 6:46 PM EST
Moon 1:54 PM EST 3:51 AM EST
Length of Visible Light 9h 50m
Length of Day
8h 41m
Waxing Gibbous, 81% of the Moon is Illuminated
Dec 23
Waxing Gibbous
Dec 28
Full
Jan 4
Last Quarter
Jan 11
New
Jan 18
First Quarter

Hourly Weather History & Observations

Time (EST) Temp. Windchill Dew Point Humidity Pressure Visibility Wind Dir Wind Speed Gust Speed Precip Events Conditions
12:15 AM 23.7 °F 17.8 °F 23.0 °F 97% 29.82 in 10.0 mi SW 4.6 mph - N/A   Clear
12:35 AM 23.0 °F 17.0 °F 22.3 °F 97% 29.82 in 10.0 mi SW 4.6 mph - N/A   Scattered Clouds
12:55 AM 22.6 °F 15.3 °F 21.9 °F 97% - 10.0 mi SW 5.8 mph - N/A   Scattered Clouds
1:16 AM 23.0 °F 15.8 °F 22.1 °F 96% 29.81 in 10.0 mi SW 5.8 mph - N/A   Scattered Clouds
1:35 AM 20.7 °F 14.2 °F 19.4 °F 95% 29.82 in 10.0 mi NW 4.6 mph - N/A   Scattered Clouds
1:55 AM 21.2 °F 16.4 °F 20.7 °F 98% 29.81 in 10.0 mi WSW 3.5 mph - N/A   Scattered Clouds
2:15 AM 20.1 °F 15.2 °F 19.2 °F 96% 29.82 in 10.0 mi West 3.5 mph - N/A   Clear
2:35 AM 20.7 °F 14.2 °F 19.0 °F 93% 29.82 in 10.0 mi West 4.6 mph - N/A   Clear
2:55 AM 22.1 °F 15.9 °F 19.2 °F 89% 29.82 in 10.0 mi West 4.6 mph - N/A   Scattered Clouds
3:15 AM 23.4 °F 16.2 °F 19.8 °F 86% 29.80 in 10.0 mi SW 5.8 mph - N/A   Mostly Cloudy
3:35 AM 23.9 °F 15.0 °F 20.3 °F 86% 29.80 in 10.0 mi SW 8.1 mph - N/A   Overcast
3:55 AM 24.6 °F 15.8 °F 21.2 °F 87% 29.80 in 10.0 mi WSW 8.1 mph - N/A   Overcast
4:15 AM 26.2 °F 18.6 °F 22.1 °F 84% 29.80 in 10.0 mi WSW 6.9 mph - N/A   Overcast
4:35 AM 27.0 °F 18.7 °F 23.0 °F 85% 29.79 in 10.0 mi WSW 8.1 mph - N/A   Overcast
4:55 AM 27.5 °F 20.2 °F 24.8 °F 90% 29.80 in 10.0 mi West 6.9 mph - N/A   Overcast
5:15 AM 28.4 °F 16.6 °F 25.5 °F 89% 29.81 in 10.0 mi NW 16.1 mph 20.7 mph N/A   Overcast
5:35 AM 28.4 °F 16.2 °F 24.6 °F 86% 29.82 in 10.0 mi NW 17.3 mph 27.6 mph N/A   Overcast
5:55 AM 28.0 °F 16.5 °F 24.1 °F 85% 29.83 in 10.0 mi NW 15.0 mph 26.5 mph N/A   Overcast
6:15 AM 27.9 °F 16.3 °F 23.0 °F 82% 29.83 in 10.0 mi NW 15.0 mph 25.3 mph N/A   Overcast
6:35 AM 27.5 °F 17.4 °F 22.8 °F 83% 29.84 in 10.0 mi NW 11.5 mph 21.9 mph N/A   Overcast
6:56 AM 27.5 °F 14.6 °F 21.9 °F 80% 29.85 in 10.0 mi NW 18.4 mph 24.2 mph N/A   Overcast
7:15 AM 27.5 °F 15.4 °F 21.7 °F 79% 29.86 in 10.0 mi NW 16.1 mph 20.7 mph N/A   Overcast
7:35 AM 27.0 °F 16.1 °F 21.7 °F 81% 29.87 in 10.0 mi NW 12.7 mph 25.3 mph N/A   Overcast
7:55 AM 26.6 °F 13.1 °F 21.0 °F 79% 29.87 in 10.0 mi NW 19.6 mph 26.5 mph N/A   Overcast
8:15 AM 25.7 °F 12.7 °F 18.7 °F 75% 29.88 in 10.0 mi NW 17.3 mph 25.3 mph N/A   Overcast
8:35 AM 25.3 °F 14.7 °F 18.1 °F 74% 29.88 in 10.0 mi NW 11.5 mph - N/A   Overcast
8:55 AM 25.3 °F 11.8 °F 17.8 °F 73% 29.89 in 10.0 mi NW 18.4 mph 21.9 mph N/A   Overcast
9:16 AM 25.2 °F 12.0 °F 18.0 °F 74% 29.89 in 10.0 mi NW 17.3 mph 24.2 mph N/A   Overcast
9:35 AM 24.8 °F 13.4 °F 18.3 °F 76% 29.90 in 10.0 mi NW 12.7 mph 23.0 mph N/A   Overcast
9:55 AM 24.6 °F 12.2 °F 17.6 °F 75% 29.90 in 10.0 mi NW 15.0 mph 28.8 mph N/A   Overcast
10:15 AM 24.4 °F 11.0 °F 16.2 °F 71% 29.91 in 10.0 mi NW 17.3 mph 21.9 mph N/A   Overcast
10:35 AM 23.9 °F 11.7 °F 15.8 °F 71% 29.92 in 10.0 mi NW 13.8 mph 18.4 mph N/A   Overcast
10:55 AM 24.3 °F 16.3 °F 16.5 °F 72% 29.92 in 10.0 mi NW 6.9 mph - N/A   Overcast
11:15 AM 24.3 °F 12.2 °F 15.8 °F 70% 29.91 in 10.0 mi WNW 13.8 mph 18.4 mph N/A   Overcast
11:35 AM 24.6 °F 12.2 °F 16.5 °F 71% 29.90 in 10.0 mi WNW 15.0 mph 18.4 mph N/A   Overcast
12:15 PM 24.3 °F 13.3 °F 18.0 °F 77% 29.91 in 10.0 mi WNW 11.5 mph 18.4 mph N/A Snow Light Snow
12:35 PM 24.6 °F 11.3 °F 18.0 °F 76% 29.91 in 10.0 mi WNW 17.3 mph - N/A   Overcast
1:15 PM 25.3 °F 15.3 °F 17.8 °F 73% 29.90 in 10.0 mi WNW 10.4 mph - N/A   Overcast
1:35 PM 24.8 °F 12.9 °F 16.9 °F 72% 29.90 in 7.0 mi WNW 13.8 mph 21.9 mph N/A Snow Light Snow
1:56 PM 24.8 °F 13.4 °F 18.9 °F 78% 29.91 in 4.0 mi WNW 12.7 mph 19.6 mph N/A Snow Light Snow
2:15 PM 25.2 °F 13.3 °F 16.5 °F 70% 29.91 in 10.0 mi WNW 13.8 mph 19.6 mph N/A   Overcast
2:35 PM 24.8 °F 14.0 °F 16.7 °F 71% 29.91 in 10.0 mi WNW 11.5 mph 20.7 mph N/A   Overcast
2:55 PM 24.8 °F 15.3 °F 18.3 °F 76% 29.92 in 10.0 mi WNW 9.2 mph 18.4 mph N/A Snow Light Snow
3:15 PM 24.8 °F 13.4 °F 17.6 °F 74% 29.92 in 10.0 mi WNW 12.7 mph 19.6 mph N/A Snow Light Snow
3:35 PM 24.8 °F 11.5 °F 16.7 °F 71% 29.93 in 10.0 mi West 17.3 mph 21.9 mph N/A   Overcast
3:55 PM 24.6 °F 13.8 °F 16.5 °F 71% 29.93 in 10.0 mi WNW 11.5 mph 19.6 mph N/A   Overcast
4:15 PM 24.4 °F 11.9 °F 17.2 °F 74% 29.94 in 10.0 mi WNW 15.0 mph - N/A   Overcast
4:35 PM 24.4 °F 15.6 °F 17.4 °F 75% 29.94 in 10.0 mi WNW 8.1 mph - N/A   Overcast
4:55 PM 24.3 °F 13.9 °F 17.6 °F 76% 29.95 in 10.0 mi WNW 10.4 mph - N/A   Overcast
5:15 PM 23.9 °F 13.5 °F 17.6 °F 77% 29.95 in 10.0 mi WNW 10.4 mph 16.1 mph N/A   Overcast
5:35 PM 24.3 °F 15.4 °F 18.0 °F 77% 29.95 in 10.0 mi NW 8.1 mph - N/A   Overcast
5:55 PM 24.3 °F 16.3 °F 18.5 °F 79% 29.96 in 10.0 mi West 6.9 mph - N/A   Overcast
6:15 PM 24.4 °F 14.2 °F 18.5 °F 78% 29.97 in 10.0 mi WNW 10.4 mph 17.3 mph N/A   Overcast
6:36 PM 24.6 °F 15.1 °F 18.7 °F 78% 29.97 in 10.0 mi WNW 9.2 mph - N/A   Overcast
6:55 PM 24.8 °F 15.3 °F 18.7 °F 78% 29.97 in 10.0 mi WNW 9.2 mph 16.1 mph N/A   Overcast
7:15 PM 24.8 °F 16.1 °F 19.0 °F 79% 29.97 in 10.0 mi West 8.1 mph - N/A   Overcast
7:35 PM 24.8 °F 19.1 °F 18.9 °F 78% 29.97 in 10.0 mi WSW 4.6 mph - N/A   Overcast
7:55 PM 24.3 °F 18.4 °F 20.1 °F 84% 29.98 in 10.0 mi SW 4.6 mph - N/A   Overcast
8:15 PM 24.1 °F 18.2 °F 20.7 °F 87% 29.98 in 10.0 mi WSW 4.6 mph - N/A   Overcast
8:35 PM 24.6 °F 18.8 °F 20.7 °F 85% 29.98 in 10.0 mi WSW 4.6 mph - N/A   Overcast
8:55 PM 24.8 °F 19.1 °F 20.3 °F 83% 29.98 in 10.0 mi West 4.6 mph - N/A   Overcast
9:14 PM 25.2 °F 19.5 °F 20.3 °F 82% 29.98 in 10.0 mi West 4.6 mph - N/A   Overcast
9:55 PM 25.2 °F 20.9 °F 20.3 °F 82% 29.98 in 10.0 mi WSW 3.5 mph - N/A   Overcast
10:15 PM 25.0 °F 18.1 °F 20.8 °F 84% 29.98 in 10.0 mi WSW 5.8 mph - N/A   Overcast
10:35 PM 25.3 °F 18.5 °F 20.7 °F 82% 29.98 in 10.0 mi West 5.8 mph - N/A   Overcast
10:56 PM 25.7 °F 19.0 °F 20.3 °F 80% 29.98 in 10.0 mi West 5.8 mph - N/A   Overcast
11:15 PM 25.5 °F 19.9 °F 20.3 °F 81% 29.98 in 10.0 mi West 4.6 mph - N/A   Overcast
11:35 PM 25.5 °F 18.7 °F 20.5 °F 81% 29.98 in 10.0 mi West 5.8 mph - N/A   Overcast
11:56 PM 25.5 °F 18.7 °F 20.3 °F 81% 29.97 in 10.0 mi West 5.8 mph - N/A   Overcast